Location: Penton Mewsey
(51.2167°N, 1.5167°W)
Time: 23:34:56
(UTC+00:00)

SL-8 R/B - Pass Details

Date: 30 March 2020
Orbit: 656 x 667 km, 48.4° (Epoch: 03 June)

Event Time Altitude Azimuth Distance (km) Brightness Sun altitude
Rises 19:57:43 0° 269° (W) 2,981 8.3 -13.0°
Reaches altitude 10° 20:00:05 10° 266° (W) 2,068 7.3 -13.4°
Maximum altitude 20:04:47 61° 187° (S) 744 3.8 -14.0°
Enters shadow 20:07:36 23° 113° (ESE) 1,377 4.7 -14.4°
